Weather in Kamynino

Russia / Tula Oblast     53°40′19″N   37°19′06″E
temp.,
°C
wind,
m/s
gust,
m/s
humid.,
%
clouds,
%
prec.,
mm/h
press.,
hPa
HPBL,
m
25 february, thu
thu2500:00−11ssw5894100 0.1 1030263
03:00−9sw51095100 0.1 1028274
06:00−5sw71395100 0.0 1023354
09:000wsw71495100 0.1 1020566
12:00+2wsw715100100 0.4 1017394
15:00+2w513100100 0.4 1017295
18:00+3w613100100 0.2 1017243
21:00+2wnw511100100 0.3 1017269
26 february, fri
fri2600:00+2w511100100 0.5 1017249
03:00+2w614100100 0.6 1016332
06:00+2w61399100 0.1 1015284
09:00+2wsw61298100 0.1 1014355
12:00+2wsw81599100 0.0 1011519
15:00+2wsw61599100 0.1 1010395
18:00+2w71698100 0.0 1008614
21:00+2w61592100 0.1 1008628
27 february, sat
sat2700:00+1w61391100 0.0 1007537
03:00+1w61297100 0.1 1007531
06:00+1w61297100 0.3 1005531
09:00+1wnw61197100 0.4 1005511
12:00+1wnw51199100 0.2 1005513
15:00+1nw61298100 0.3 1006612
18:000nw5129099 0.1 1008701
21:00−3nnw4119294 0.1 1011580
28 february, sun
sun2800:00−5n6109095 0.0 1013631
03:00−7n5119297 0.1 1016545
06:00−7nnw499398 0.0 1017506
09:00−6n589298 0.1 1018522
12:00−5n588997 0.1 1019627
15:00−3n588798 0.1 1020753
18:00−3nnw3891100 0.1 1021599
21:00−4nnw3896100 0.2 1024410
1 march, mon
mon100:00−4n3895100 0.2 1025470
03:00−6nnw369696 0.2 1027175
06:00−6wnw3593100 0.0 1027136
09:00−4wnw3791100 0.0 1028325
12:00−3w578920 0.0 1027437
15:00−1w6108955 0.0 1026522
18:00−1w6129395 0.0 1024662
21:000w6139297 0.0 1022530